Temperature
5 5 5 5 5 5 5 5 5 5 5 5 5 5 5 5 5 5 5 5 5 6 6 6 6 6 6 6 6 6 6 6 7 7 7 7 7 8 7 8 8 8 8
4 4 4 4 5 5 5 5 4 4 4 4 4 4 4 5 5 5 5 5 5 5 5 5 5 5 5 6 6 6 6 6 6 6 6 6 6 7 7 7 7 7 7
3 3 4 4 4 4 4 4 4 4 4 4 4 4 4 4 4 4 4 4 4 4 4 4 5 5 5 5 5 5 5 5 5 5 5 5 5 5 6 7 7 7 7
3 3 3 3 3 3 3 3 3 3 3 3 3 3 3 3 3 4 4 4 4 4 4 4 4 4 4 4 4 4 4 4 4 5 4 4 5 4 5 6 6 6 6
2 2 3 3 3 3 3 3 3 3 3 3 3 2 2 3 3 3 3 3 3 3 3 3 3 3 4 4 4 4 4 4 4 4 4 4 4 4 4 4 5 5 6
2 2 2 3 3 3 3 3 3 2 2 2 2 2 2 2 2 2 2 3 3 3 3 3 3 3 3 3 3 3 3 3 3 3 3 3 3 4 3 3 4 4 5
2 2 2 2 2 2 2 2 2 2 2 2 2 1 2 2 2 2 2 2 2 2 3 3 3 2 2 2 3 3 3 3 3 3 3 3 3 3 3 3 3 3 4
1 1 1 2 2 2 2 2 2 2 2 1 1 1 1 1 1 1 1 1 1 2 2 2 2 2 2 2 2 2 2 2 2 2 2 2 2 2 3 2 2 2 2
1 1 1 1 1 1 1 1 1 1 1 1 1 1 1 1 1 1 0 0 1 1 1 1 2 1 1 1 1 1 2 2 2 2 2 2 2 2 2 2 2 1 1
0 1 1 1 1 1 1 1 1 0 0 0 0 0 0 0 -0 -0 -0 -0 0 0 0 1 1 1 1 1 1 1 1 1 1 1 1 1 1 1 1 1 1 1 1
-0 -0 0 -0 -0 0 0 0 0 0 -0 -0 -0 -0 -0 -1 -1 -1 -1 -1 -1 -0 -0 -0 -0 0 0 0 0 0 0 0 0 0 1 1 1 1 1 1 1 1 0
-0 -0 -0 -1 -1 -1 -0 -0 -0 -1 -1 -1 -1 -1 -1 -1 -1 -1 -1 -1 -1 -1 -1 -1 -1 -1 -0 -0 -1 -0 -0 -0 -0 -0 -0 0 0 0 0 0 0 0 -0
-1 -1 -1 -1 -1 -1 -1 -1 -1 -1 -1 -2 -2 -2 -2 -2 -2 -2 -2 -2 -2 -2 -2 -2 -1 -1 -1 -1 -1 -1 -1 -1 -1 -1 -1 -1 -1 -1 -0 -1 -1 -0 -1
-1 -2 -2 -2 -2 -2 -2 -2 -2 -2 -2 -2 -2 -2 -2 -2 -2 -2 -2 -2 -2 -2 -2 -2 -2 -2 -2 -2 -2 -2 -2 -2 -2 -2 -2 -2 -2 -1 -1 -1 -1 -1 -1
-2 -2 -2 -2 -2 -2 -3 -3 -3 -3 -3 -3 -3 -3 -3 -3 -3 -3 -3 -3 -3 -3 -3 -3 -3 -3 -3 -3 -3 -3 -3 -3 -3 -2 -2 -2 -2 -2 -2 -2 -2 -2 -2
-2 -2 -3 -3 -3 -3 -3 -3 -3 -3 -3 -3 -3 -3 -4 -4 -4 -4 -4 -3 -3 -3 -3 -3 -3 -3 -4 -3 -4 -4 -3 -3 -3 -3 -3 -3 -3 -3 -3 -3 -2 -2 -2
-3 -3 -3 -3 -3 -4 -4 -4 -4 -4 -4 -4 -4 -4 -4 -4 -4 -4 -4 -4 -4 -4 -4 -4 -4 -4 -4 -4 -4 -4 -4 -4 -4 -4 -4 -3 -3 -3 -3 -3 -3 -3 -3
-3 -3 -4 -4 -4 -4 -4 -4 -4 -4 -4 -4 -5 -5 -5 -5 -5 -5 -5 -5 -5 -5 -5 -5 -5 -5 -5 -5 -5 -5 -5 -5 -5 -4 -4 -4 -4 -4 -4 -4 -4 -4 -3
-4 -4 -4 -4 -5 -5 -5 -5 -5 -5 -5 -5 -5 -5 -5 -6 -6 -6 -6 -6 -6 -6 -6 -6 -6 -5 -5 -5 -5 -5 -5 -5 -5 -5 -5 -5 -5 -5 -4 -4 -4 -4 -4
-4 -4 -5 -5 -5 -5 -5 -5 -5 -5 -5 -6 -6 -6 -6 -6 -6 -6 -6 -6 -6 -6 -7 -7 -6 -6 -6 -6 -6 -6 -6 -6 -6 -6 -6 -5 -5 -5 -5 -5 -5 -5 -4
-5 -5 -5 -5 -5 -6 -6 -6 -6 -6 -6 -6 -6 -6 -6 -7 -7 -7 -7 -7 -7 -7 -7 -7 -7 -7 -7 -6 -6 -6 -6 -7 -6 -6 -6 -6 -6 -6 -5 -5 -5 -5 -5
-5 -5 -5 -6 -6 -6 -6 -6 -6 -6 -7 -7 -7 -7 -7 -7 -7 -8 -8 -8 -8 -8 -8 -8 -8 -8 -8 -7 -7 -7 -7 -7 -7 -7 -7 -7 -6 -6 -6 -6 -6 -6 -5
-6 -6 -6 -6 -6 -7 -7 -7 -7 -7 -7 -7 -7 -8 -8 -8 -8 -8 -8 -8 -8 -9 -9 -9 -9 -9 -8 -8 -8 -8 -8 -7 -7 -7 -7 -7 -7 -7 -6 -6 -6 -6 -6
-7 -7 -7 -7 -7 -7 -7 -7 -8 -8 -8 -8 -8 -8 -8 -8 -9 -9 -9 -9 -9 -9 -9 -9 -9 -9 -9 -9 -9 -8 -8 -8 -8 -8 -8 -8 -7 -7 -7 -7 -7 -7 -7
-7 -7 -7 -7 -7 -8 -8 -8 -8 -8 -9 -9 -9 -9 -9 -9 -9 -9 -9 -9 -10 -10 -10 -10 -10 -10 -10 -10 -9 -9 -9 -9 -8 -8 -8 -8 -8 -8 -8 -7 -7 -7 -7
-8 -8 -8 -8 -8 -8 -8 -9 -9 -9 -9 -9 -9 -9 -9 -10 -10 -10 -9 -9 -10 -10 -10 -10 -10 -10 -10 -10 -10 -10 -9 -9 -9 -9 -9 -9 -9 -9 -9 -8 -8 -8 -8
Wind_Speed
4 2 2 2 1 2 2 2 2 1 0 1 1 2 2 2 1 2 2 2 2 2 1 1 1 1 2 2 2 1 1 1 1 1 2 2 2 2 2 1 1 1 1
3 2 2 1 1 2 3 2 3 2 2 2 2 2 2 2 2 2 2 2 2 2 3 2 2 2 2 2 2 1 1 1 0 0 0 2 2 2 2 2 2 2 1
4 4 3 2 2 2 3 3 3 2 3 1 0 1 1 1 1 2 2 2 3 3 3 3 3 3 3 3 3 3 3 2 2 1 1 1 2 2 2 2 2 2 2
3 3 3 3 3 3 3 2 2 2 2 1 1 1 1 2 3 2 2 3 3 3 3 4 4 4 3 4 5 4 3 4 3 2 2 2 2 1 2 2 2 3 3
3 3 3 3 3 2 2 2 2 2 1 2 2 2 2 2 2 2 3 3 3 3 3 4 4 4 4 4 4 4 4 4 4 4 2 2 2 2 2 3 3 3 4
3 3 3 2 2 2 1 1 1 2 1 2 2 3 3 2 2 3 3 3 3 3 3 4 4 5 4 5 5 5 6 5 5 4 4 3 3 3 3 4 4 4 4
2 3 3 3 3 2 2 1 1 2 2 2 3 3 3 3 4 4 4 4 3 3 4 4 4 4 5 5 5 5 6 6 6 6 5 5 4 3 3 3 4 4 4
3 3 3 3 3 3 2 2 3 3 2 2 3 2 2 3 3 4 4 4 4 4 5 4 4 5 5 5 4 4 5 5 5 7 6 5 5 4 4 4 3 4 4
3 4 4 4 3 3 3 3 3 3 3 3 2 2 2 3 3 4 4 4 4 4 4 4 4 5 4 5 4 4 5 5 5 6 7 6 5 5 4 4 4 5 6
4 4 4 4 4 3 3 3 2 3 3 2 2 2 3 3 3 3 3 4 4 4 4 4 4 4 4 4 4 4 5 5 6 6 7 6 5 5 5 5 5 5 6
4 4 4 4 4 3 3 2 3 3 3 2 2 2 3 3 3 3 3 4 4 4 4 4 4 4 4 4 4 4 4 5 6 6 7 8 6 6 5 5 5 5 6
4 4 4 4 3 4 3 3 3 3 3 2 2 2 3 3 3 3 4 4 4 4 4 4 4 4 4 4 5 5 5 5 6 7 7 8 7 7 6 6 7 6 6
3 3 3 3 3 4 4 3 3 3 3 2 2 2 3 3 4 4 4 4 4 4 4 4 4 4 5 5 5 5 6 6 7 7 7 8 7 8 6 6 7 6 7
3 3 3 3 4 4 3 3 4 3 3 3 2 3 4 4 4 4 4 4 4 4 4 4 5 5 5 5 5 5 6 6 7 6 7 8 8 8 8 7 7 7 7
4 4 4 3 4 4 4 3 4 4 3 3 3 4 4 4 4 4 4 4 4 4 4 4 5 5 5 5 5 6 6 7 7 7 7 8 9 10 9 8 7 7 7
5 5 4 4 4 4 4 4 4 4 3 3 3 4 4 4 4 4 4 4 4 4 4 4 5 5 5 8 9 8 7 7 7 7 7 7 9 11 13 13 12 10 9
6 5 5 5 4 4 4 4 4 3 3 3 4 4 4 5 5 5 5 5 5 5 5 5 5 6 7 9 10 10 7 6 6 7 7 7 8 10 8 11 13 12 14
5 5 4 4 4 3 3 3 3 2 3 3 4 4 4 5 5 5 5 6 5 5 5 6 5 5 7 8 9 10 7 6 7 7 7 8 8 8 9 8 9 9 10
4 4 4 4 4 4 3 2 3 2 3 3 4 4 4 5 5 6 6 5 5 5 6 6 5 5 7 9 10 10 5 5 7 7 8 8 8 11 12 10 9 9 9
3 3 3 3 3 4 2 2 3 3 4 4 5 5 4 5 5 6 6 5 5 5 6 6 6 6 6 9 10 10 5 5 6 6 7 9 10 11 12 9 9 10 9
3 2 2 3 3 3 2 2 3 4 5 5 5 5 4 5 5 5 5 5 5 5 5 6 6 6 7 9 10 10 5 5 6 6 6 6 10 12 12 11 8 10 9
4 3 2 3 4 2 2 3 4 5 4 4 4 5 5 4 4 4 5 4 4 5 5 5 6 5 6 8 8 10 10 8 6 6 5 6 10 11 12 10 9 11 9
3 3 2 3 4 3 2 4 5 4 4 4 4 5 5 5 5 4 5 5 4 4 5 5 5 6 5 6 10 11 12 11 6 5 8 9 10 10 8 9 10 8 6
3 3 2 3 4 4 4 4 4 3 3 4 4 5 4 5 5 4 4 4 4 4 5 5 5 6 6 6 6 6 7 8 7 6 8 10 9 7 7 7 6 5 5
3 3 3 4 5 5 4 4 4 2 3 4 4 4 4 4 5 5 4 5 5 5 6 5 5 6 6 8 10 8 6 5 5 5 4 3 4 4 4 4 4 4 4
3 3 4 4 5 4 5 5 3 2 2 3 4 4 4 4 4 5 6 7 7 9 10 9 9 7 9 12 12 12 11 11 9 6 4 4 4 4 4 5 5 4 5
Wind_Direction
274 285 275 270 256 245 234 224 232 243 216 252 263 269 271 286 286 280 266 237 237 243 251 261 285 235 213 220 213 243 226 285 325 329 316 301 266 243 231 247 241 254 243
298 300 290 287 256 246 240 231 227 226 222 236 233 242 256 259 270 292 282 264 252 235 231 244 250 241 227 222 218 188 200 257 183 188 304 305 293 285 251 232 225 239 264
265 278 281 265 264 265 254 242 235 230 224 228 338 343 349 336 304 303 298 295 272 257 247 237 242 235 217 220 223 209 196 212 232 215 191 198 249 298 285 253 241 238 238
266 275 279 277 267 262 267 254 234 230 222 188 195 197 231 253 260 270 282 295 283 267 257 253 240 235 224 224 226 221 216 200 219 229 247 233 194 226 286 279 264 259 249
254 262 267 263 270 269 262 253 236 230 215 187 196 205 241 258 284 295 288 289 290 281 272 262 250 241 230 226 228 222 220 213 215 215 227 243 245 226 231 268 277 282 262
264 268 285 302 309 325 323 315 275 262 231 209 214 218 237 261 290 296 284 288 289 286 287 275 260 252 240 230 228 226 218 221 219 216 216 211 210 215 223 251 274 275 270
292 296 309 312 311 316 315 304 284 278 262 232 234 236 238 235 242 261 266 280 284 281 278 276 266 259 250 243 233 228 223 219 217 218 225 225 228 224 228 238 264 277 284
323 311 302 295 293 296 297 297 287 286 282 259 262 264 261 243 252 259 261 261 264 269 275 274 272 270 260 254 243 229 232 225 222 228 227 229 232 227 225 230 245 275 279
320 309 310 304 294 292 286 275 280 288 287 277 279 280 274 262 257 261 260 264 273 278 276 276 277 274 268 259 250 238 234 229 232 234 229 228 230 224 230 234 229 237 263
318 316 313 306 298 289 285 287 279 276 278 277 275 279 279 273 262 257 265 269 275 276 272 272 270 270 267 261 251 250 244 232 238 241 232 231 231 225 225 229 235 234 244
307 311 314 314 312 315 314 310 302 302 301 299 300 310 305 296 288 273 273 270 277 269 263 264 263 264 264 258 252 250 251 245 244 244 240 236 233 226 225 225 230 236 237
306 309 312 322 327 324 324 318 312 312 311 314 323 321 316 313 310 300 290 285 280 274 266 265 264 265 266 261 250 253 254 246 250 246 243 243 238 229 227 225 230 235 236
310 318 322 321 317 316 320 321 317 311 319 323 323 320 315 313 309 304 304 298 282 281 279 271 264 264 264 262 255 249 250 245 247 247 242 245 235 236 232 231 234 238 243
287 302 310 310 309 309 312 317 320 321 322 318 312 309 305 302 300 303 307 302 288 284 283 277 272 268 267 264 260 255 253 253 252 253 247 242 235 236 234 237 237 237 242
300 298 297 300 305 312 317 321 323 326 325 319 310 303 304 306 308 309 310 308 306 295 287 283 282 280 271 264 259 257 256 256 258 256 250 244 240 243 241 242 238 236 240
285 289 289 291 294 297 303 310 313 314 317 310 307 313 319 320 318 315 316 316 314 306 294 288 284 282 278 278 277 272 262 259 258 260 260 256 251 249 252 253 251 244 240
273 273 277 279 281 283 285 285 292 305 313 313 317 321 324 324 321 320 323 318 316 315 301 293 287 282 282 282 280 280 277 266 262 262 265 268 263 257 248 254 257 256 252
280 280 283 287 291 289 291 292 297 301 307 315 319 322 323 319 318 322 320 318 317 314 306 301 294 292 294 293 291 289 282 269 264 260 259 262 265 260 251 247 250 253 255
276 280 281 288 295 293 293 297 300 306 308 309 310 311 312 311 315 316 315 313 312 312 308 303 300 297 299 300 296 293 280 273 269 265 261 260 260 265 263 256 253 255 257
301 297 305 309 299 295 293 288 292 299 295 295 297 301 303 303 304 305 307 307 305 304 308 308 307 300 298 303 301 297 279 276 276 272 267 268 267 269 267 256 251 254 254
310 309 307 299 292 295 289 281 287 285 292 299 302 305 306 301 298 302 304 305 308 311 310 309 309 304 303 308 309 305 289 276 277 277 274 270 277 275 271 266 253 255 258
322 317 311 308 309 299 274 278 283 292 303 305 306 307 308 307 310 310 310 309 310 311 310 313 314 311 309 312 311 310 304 297 282 278 276 276 283 279 275 270 266 269 269
311 313 303 310 314 306 278 275 291 303 307 309 308 309 312 311 310 307 307 311 308 307 309 311 311 313 314 312 314 313 310 303 292 282 286 289 290 289 283 280 277 274 264
307 308 306 306 307 310 305 287 294 301 305 307 309 312 315 316 314 306 300 300 300 303 303 302 302 306 310 312 311 309 309 304 294 291 288 289 290 286 285 286 283 269 261
305 300 293 294 300 309 309 306 304 304 306 305 307 313 313 309 311 308 297 296 284 288 294 295 295 303 305 310 316 314 310 307 299 304 297 295 291 285 280 278 274 270 264
300 301 298 298 301 305 304 305 304 297 298 306 309 308 308 306 307 310 313 308 305 308 308 308 309 302 304 311 315 317 316 317 317 312 297 291 287 282 279 275 274 270 265
Height
1497 1497 1498 1498 1499 1499 1500 1500 1500 1501 1501 1502 1502 1502 1503 1504 1505 1506 1507 1508 1508 1509 1510 1511 1512 1513 1514 1515 1516 1517 1517 1518 1519 1520 1520 1520 1521 1521 1522 1523 1524 1525 1526
1493 1494 1494 1495 1495 1496 1496 1496 1497 1497 1498 1499 1499 1499 1500 1500 1501 1502 1503 1504 1504 1505 1506 1507 1508 1509 1509 1510 1512 1512 1513 1514 1516 1516 1516 1516 1517 1517 1518 1519 1520 1521 1523
1490 1490 1491 1491 1492 1492 1493 1493 1494 1494 1495 1496 1496 1496 1497 1497 1497 1498 1499 1499 1500 1501 1502 1503 1504 1504 1505 1506 1507 1508 1509 1510 1512 1513 1514 1514 1512 1513 1513 1514 1516 1517 1518
1487 1487 1488 1488 1489 1489 1490 1491 1491 1492 1492 1492 1492 1492 1492 1492 1493 1494 1495 1496 1496 1496 1497 1498 1499 1499 1500 1501 1502 1504 1505 1506 1507 1508 1510 1511 1510 1511 1509 1510 1511 1512 1514
1485 1485 1485 1486 1487 1487 1487 1488 1488 1489 1489 1489 1489 1489 1489 1489 1490 1490 1491 1491 1492 1492 1492 1493 1494 1494 1495 1496 1497 1499 1500 1501 1502 1503 1505 1506 1506 1507 1507 1505 1506 1507 1508
1483 1483 1484 1484 1484 1484 1485 1485 1485 1485 1485 1485 1486 1486 1486 1485 1486 1486 1486 1487 1487 1487 1488 1488 1488 1489 1489 1490 1492 1493 1495 1496 1497 1499 1500 1501 1501 1502 1502 1502 1501 1501 1502
1481 1481 1481 1481 1481 1481 1482 1482 1482 1482 1482 1482 1482 1482 1482 1482 1482 1482 1482 1482 1482 1482 1482 1483 1483 1484 1484 1485 1486 1488 1489 1491 1492 1493 1494 1495 1496 1497 1498 1498 1497 1497 1496
1479 1479 1479 1479 1480 1480 1479 1479 1479 1479 1479 1479 1478 1478 1478 1478 1478 1478 1478 1478 1478 1477 1478 1478 1478 1479 1479 1480 1481 1483 1484 1485 1486 1488 1489 1490 1491 1492 1493 1494 1494 1493 1492
1478 1478 1478 1478 1478 1478 1477 1477 1477 1476 1476 1475 1475 1475 1475 1475 1474 1474 1474 1474 1473 1473 1473 1473 1472 1473 1474 1475 1476 1477 1478 1480 1481 1482 1483 1483 1485 1486 1487 1489 1490 1491 1488
1477 1477 1477 1476 1476 1476 1475 1475 1474 1474 1473 1473 1472 1471 1471 1471 1471 1470 1469 1468 1468 1468 1468 1467 1467 1468 1468 1469 1470 1471 1473 1473 1474 1476 1476 1477 1478 1480 1481 1482 1483 1484 1484
1477 1476 1475 1475 1474 1473 1473 1472 1471 1471 1470 1469 1469 1468 1467 1467 1466 1465 1464 1463 1463 1463 1463 1463 1462 1463 1463 1464 1465 1465 1466 1467 1468 1469 1470 1470 1472 1473 1474 1475 1476 1477 1478
1476 1475 1474 1473 1472 1471 1470 1469 1468 1467 1467 1466 1465 1465 1464 1463 1462 1461 1460 1458 1458 1458 1457 1457 1456 1457 1457 1458 1459 1459 1459 1460 1461 1462 1463 1463 1464 1465 1467 1468 1469 1470 1471
1474 1473 1472 1471 1470 1468 1467 1466 1465 1464 1463 1463 1462 1461 1460 1459 1457 1456 1455 1454 1454 1453 1452 1452 1451 1451 1452 1452 1453 1453 1453 1454 1454 1455 1456 1456 1457 1458 1460 1461 1462 1463 1464
1471 1471 1470 1469 1468 1466 1465 1464 1463 1462 1461 1460 1459 1458 1457 1455 1454 1452 1450 1450 1449 1448 1447 1446 1446 1446 1446 1446 1446 1447 1447 1447 1447 1448 1449 1450 1451 1451 1452 1453 1454 1455 1456
1469 1468 1467 1466 1465 1464 1463 1461 1460 1459 1458 1457 1456 1454 1453 1451 1450 1448 1446 1445 1444 1443 1442 1441 1441 1440 1440 1440 1440 1441 1441 1440 1440 1441 1442 1443 1444 1444 1446 1446 1447 1449 1449
1466 1465 1465 1464 1463 1462 1460 1458 1457 1456 1455 1454 1453 1451 1449 1448 1446 1444 1442 1441 1440 1438 1437 1436 1435 1434 1434 1435 1435 1435 1435 1434 1434 1435 1436 1436 1437 1438 1439 1439 1441 1442 1442
1463 1462 1461 1461 1460 1459 1457 1456 1454 1453 1452 1451 1449 1448 1446 1444 1442 1440 1438 1437 1435 1433 1432 1431 1430 1429 1429 1429 1429 1430 1429 1428 1428 1429 1429 1430 1430 1431 1431 1432 1433 1433 1434
1460 1459 1458 1457 1457 1456 1455 1453 1452 1450 1449 1448 1446 1444 1443 1440 1439 1437 1435 1433 1430 1429 1427 1426 1425 1424 1423 1423 1423 1423 1423 1422 1422 1422 1422 1423 1423 1424 1424 1424 1424 1425 1426
1457 1456 1455 1454 1453 1452 1451 1450 1448 1447 1446 1444 1443 1441 1439 1437 1435 1433 1431 1429 1427 1425 1423 1421 1420 1419 1418 1418 1418 1417 1416 1415 1415 1415 1416 1416 1416 1416 1417 1417 1417 1417 1418
1454 1453 1452 1451 1450 1449 1448 1447 1445 1444 1442 1441 1440 1438 1436 1434 1432 1430 1428 1425 1423 1421 1419 1417 1416 1414 1413 1413 1412 1412 1411 1410 1409 1409 1409 1409 1409 1409 1410 1410 1410 1409 1410
1451 1450 1449 1448 1447 1446 1445 1443 1442 1441 1439 1438 1436 1435 1433 1431 1428 1426 1424 1422 1420 1417 1415 1413 1411 1410 1408 1407 1407 1406 1405 1404 1403 1402 1402 1402 1402 1402 1403 1403 1403 1402 1403
1448 1447 1446 1445 1444 1443 1442 1440 1439 1438 1436 1435 1433 1431 1429 1427 1425 1423 1421 1419 1417 1414 1412 1409 1406 1405 1404 1403 1401 1401 1400 1399 1398 1396 1396 1396 1396 1395 1396 1397 1396 1397 1397
1445 1444 1443 1442 1441 1440 1439 1437 1435 1434 1432 1431 1429 1427 1426 1424 1422 1420 1417 1415 1413 1411 1408 1406 1403 1401 1400 1398 1397 1396 1395 1394 1393 1392 1391 1391 1390 1389 1390 1390 1390 1391 1391
1443 1442 1440 1439 1437 1436 1435 1434 1432 1431 1429 1427 1426 1424 1422 1420 1419 1417 1414 1412 1410 1408 1406 1404 1401 1399 1397 1395 1393 1392 1390 1389 1387 1387 1386 1386 1385 1385 1384 1384 1385 1385 1384
1440 1439 1437 1436 1434 1433 1432 1430 1429 1427 1426 1424 1422 1421 1419 1417 1415 1414 1412 1409 1408 1406 1404 1402 1399 1397 1394 1392 1391 1389 1387 1385 1384 1383 1381 1381 1380 1379 1378 1379 1379 1378 1378
1438 1436 1435 1433 1431 1430 1428 1427 1426 1424 1423 1421 1419 1417 1416 1414 1412 1410 1408 1407 1405 1403 1401 1399 1397 1394 1392 1390 1388 1386 1384 1382 1381 1379 1377 1376 1375 1374 1373 1373 1373 1372 1372